Dewpoint
6 5 5 5 3 3 3 3 3 3 3 2 2 1 1 1 -1 -4 -7 -16 -22 -24 -16 -4 -3 -2 -3
4 3 2 2 2 3 3 2 2 2 2 1 1 -0 -2 -4 -11 -23 -25 -28 -30 -24 -20 -16 -10 -8 -4
2 2 2 2 3 2 1 1 1 1 0 -1 -2 -6 -18 -25 -27 -29 -30 -23 -17 -15 -15 -15 -15 -15 -12
2 2 2 2 1 1 1 -0 -1 -3 -11 -20 -23 -26 -28 -30 -28 -25 -17 -14 -14 -15 -15 -14 -14 -14 -13
1 1 1 0 -0 -1 -4 -10 -20 -23 -24 -26 -29 -30 -28 -22 -17 -14 -14 -15 -14 -14 -14 -14 -14 -14 -14
-0 -1 -4 -9 -16 -22 -23 -22 -16 -26 -28 -27 -28 -22 -16 -14 -14 -15 -14 -14 -14 -14 -14 -14 -14 -14 -13
-23 -25 -25 -25 -24 -24 -23 -25 -26 -22 -26 -22 -16 -14 -14 -14 -14 -14 -15 -15 -15 -15 -14 -14 -14 -14 -14
-30 -29 -28 -27 -26 -26 -26 -25 -24 -23 -18 -13 -13 -13 -14 -14 -14 -15 -16 -15 -15 -16 -16 -16 -16 -16 -16
-30 -29 -28 -28 -27 -26 -25 -24 -15 -14 -13 -12 -12 -13 -13 -14 -14 -14 -14 -13 -12 -12 -12 -13 -12 -12 -14
-28 -27 -26 -26 -26 -26 -24 -20 -14 -12 -12 -12 -12 -12 -12 -13 -13 -14 -14 -14 -12 -12 -11 -10 -11 -11 -12
-26 -25 -25 -25 -25 -23 -21 -15 -13 -12 -12 -12 -11 -11 -12 -12 -12 -12 -12 -11 -10 -10 -10 -10 -10 -12 -13
-26 -26 -25 -24 -22 -20 -16 -13 -13 -12 -11 -11 -11 -11 -11 -11 -11 -10 -10 -10 -10 -10 -10 -10 -11 -10 -12
-26 -25 -24 -23 -20 -16 -14 -13 -12 -11 -11 -10 -10 -10 -10 -10 -10 -10 -10 -10 -10 -10 -10 -10 -10 -10 -11
-25 -23 -23 -22 -19 -15 -13 -12 -12 -11 -11 -10 -10 -10 -10 -10 -9 -10 -10 -10 -10 -10 -10 -10 -10 -10 -12
-26 -24 -22 -21 -19 -15 -13 -13 -12 -11 -10 -10 -10 -10 -10 -10 -10 -11 -11 -11 -10 -10 -10 -10 -10 -10 -11
-27 -26 -25 -24 -24 -20 -15 -13 -12 -11 -11 -11 -10 -11 -11 -11 -11 -12 -11 -11 -11 -10 -10 -10 -10 -10 -10
-27 -26 -26 -25 -24 -23 -23 -23 -22 -20 -18 -15 -13 -13 -13 -13 -13 -13 -13 -12 -11 -10 -10 -10 -10 -11 -10
Wind_Speed
18 16 14 15 16 18 17 17 16 17 17 18 17 16 17 17 17 16 17 17 17 17 15 10 10 9 11
14 14 15 17 17 16 15 13 12 13 15 15 15 16 17 17 17 17 17 17 17 15 14 13 11 10 9
15 14 14 14 14 11 11 10 13 17 17 18 17 16 17 17 17 18 16 13 10 9 10 11 12 13 12
14 14 13 11 11 11 13 13 15 15 15 16 16 17 17 16 14 12 10 9 9 10 11 12 14 15 16
12 12 12 11 11 12 12 13 15 15 16 17 15 15 14 11 9 9 9 9 11 12 14 15 16 16 14
11 11 12 12 12 12 13 12 9 14 13 12 13 10 8 8 9 9 10 12 14 16 16 15 13 13 17
10 12 12 12 13 13 12 12 12 14 11 9 7 8 8 9 10 11 13 14 15 13 12 14 17 19 20
11 12 12 11 11 11 10 10 10 9 7 6 8 9 10 11 12 12 11 8 7 11 13 17 19 21 23
11 11 11 10 9 9 7 7 5 6 7 8 9 8 11 13 12 9 8 6 11 15 18 19 23 24 25
8 8 8 7 8 7 7 7 7 6 8 7 8 10 6 9 10 9 13 17 19 19 19 26 25 25 26
7 8 7 8 7 7 7 8 9 10 13 12 11 12 11 14 14 15 18 16 17 21 22 22 22 19 20
7 7 7 7 7 8 9 10 11 12 13 14 15 14 15 17 18 17 18 20 20 20 18 15 19 25 23
6 7 7 8 9 10 11 12 12 12 13 14 15 15 17 19 21 23 25 24 22 15 23 26 25 22 24
7 8 9 9 11 12 12 13 14 13 14 14 16 17 18 21 23 24 25 25 25 25 24 26 27 24 22
8 8 9 11 11 13 14 14 15 15 15 15 16 18 20 21 25 25 25 27 25 25 23 25 27 27 26
9 10 11 11 12 13 14 15 16 16 17 17 19 20 21 22 22 22 22 25 23 20 27 28 28 26 24
10 11 12 12 13 14 14 15 17 17 17 18 19 20 21 22 22 23 23 24 27 27 27 27 28 29 26
Wind_Direction
253 255 260 263 269 270 266 262 265 263 263 269 275 277 280 280 281 280 277 276 277 274 272 280 274 279 268
255 255 265 265 266 270 264 268 263 269 273 276 279 282 277 278 277 277 277 277 276 273 272 270 273 280 282
256 255 258 258 260 264 268 269 274 274 275 274 274 274 274 274 276 278 279 275 270 267 270 275 277 276 277
250 248 245 249 251 259 266 267 271 273 272 272 274 274 275 276 274 266 260 257 264 269 273 276 283 286 284
237 239 244 247 250 260 263 272 276 276 277 279 279 280 277 271 256 250 253 260 265 271 276 278 277 279 286
236 241 247 252 260 263 267 272 274 282 278 278 283 273 261 255 256 257 261 269 273 275 278 278 281 289 296
246 249 260 262 266 266 266 271 270 274 283 277 255 257 261 265 264 271 276 274 272 274 277 288 294 296 294
254 260 262 264 265 265 268 270 273 274 257 255 248 258 270 273 277 279 275 260 268 285 290 292 295 295 295
265 267 268 270 267 267 263 262 257 259 245 266 270 268 276 277 274 269 236 295 292 292 289 287 294 294 295
270 269 271 272 264 259 252 235 233 262 260 255 275 293 295 278 273 258 250 285 295 289 284 290 290 288 287
267 267 265 265 258 250 238 233 242 247 268 277 283 288 284 282 281 277 280 286 289 293 289 285 284 283 286
267 267 262 257 252 246 243 251 259 262 267 277 284 286 286 291 295 298 298 301 305 304 292 275 276 288 284
269 265 260 259 258 255 260 264 266 271 274 274 277 281 286 290 295 300 305 309 310 306 299 295 293 290 290
266 267 267 265 264 265 267 270 273 275 275 277 279 282 286 291 293 297 303 302 305 305 301 297 296 296 292
266 267 269 272 272 270 273 277 279 282 282 280 278 281 283 287 290 297 301 299 304 304 297 299 296 296 295
268 268 269 274 280 277 278 280 281 282 284 286 288 291 292 293 291 296 292 296 299 297 306 307 301 302 299
270 272 274 277 280 283 285 284 283 285 285 286 289 293 295 292 297 298 298 303 305 306 307 303 299 299 299
Height
1528 1528 1528 1528 1530 1529 1528 1527 1527 1527 1527 1527 1527 1527 1527 1526 1526 1526 1526 1525 1524 1523 1523 1523 1523 1523 1523
1524 1524 1524 1524 1525 1524 1524 1522 1523 1523 1524 1523 1523 1523 1522 1522 1522 1521 1521 1520 1520 1519 1519 1518 1518 1517 1518
1519 1519 1520 1520 1520 1519 1520 1519 1519 1520 1521 1520 1520 1519 1518 1518 1517 1517 1516 1516 1516 1516 1515 1515 1515 1514 1514
1516 1516 1516 1515 1517 1516 1517 1516 1516 1517 1517 1516 1516 1515 1514 1513 1513 1512 1512 1513 1512 1512 1512 1511 1511 1510 1509
1512 1514 1513 1512 1513 1513 1513 1513 1512 1513 1513 1511 1511 1510 1510 1509 1509 1509 1509 1509 1509 1509 1508 1507 1507 1506 1505
1509 1510 1510 1509 1509 1510 1510 1510 1510 1509 1508 1508 1507 1506 1506 1506 1506 1506 1506 1506 1505 1505 1505 1504 1502 1501 1501
1506 1507 1506 1505 1506 1507 1507 1506 1507 1506 1505 1504 1504 1504 1503 1503 1503 1503 1502 1501 1501 1501 1500 1499 1497 1496 1495
1502 1502 1503 1502 1503 1504 1503 1503 1503 1502 1502 1502 1502 1502 1501 1501 1500 1499 1498 1498 1498 1497 1496 1494 1493 1492 1490
1499 1499 1499 1499 1500 1500 1499 1500 1500 1500 1501 1501 1500 1499 1499 1497 1496 1496 1496 1495 1494 1493 1492 1490 1488 1486 1484
1496 1496 1496 1496 1497 1496 1496 1497 1498 1499 1498 1499 1498 1497 1496 1494 1493 1493 1492 1491 1490 1488 1487 1485 1483 1481 1478
1494 1494 1493 1494 1494 1494 1494 1495 1496 1496 1495 1496 1495 1494 1493 1492 1491 1490 1489 1487 1485 1483 1480 1479 1476 1475 1473
1491 1491 1491 1491 1491 1491 1492 1493 1493 1493 1493 1492 1491 1491 1489 1487 1486 1485 1483 1482 1479 1477 1474 1472 1471 1470 1468
1488 1489 1489 1489 1488 1489 1489 1489 1489 1489 1488 1488 1487 1487 1485 1483 1482 1480 1477 1476 1473 1471 1470 1466 1463 1462 1460
1486 1486 1486 1485 1485 1485 1486 1485 1485 1485 1484 1483 1482 1482 1480 1479 1477 1475 1474 1471 1470 1466 1462 1459 1456 1455 1453
1483 1482 1482 1482 1482 1481 1481 1481 1480 1480 1479 1478 1477 1476 1475 1474 1471 1470 1468 1465 1462 1460 1456 1453 1451 1448 1446
1480 1479 1479 1478 1478 1477 1476 1476 1475 1475 1474 1473 1471 1470 1468 1467 1466 1464 1462 1459 1457 1454 1451 1447 1443 1442 1440
1476 1476 1475 1474 1474 1473 1472 1471 1471 1470 1469 1468 1466 1465 1462 1459 1460 1458 1455 1453 1450 1447 1446 1442 1437 1434 1432